Theta_e
336 336 336 336 337 337 337 337 336 336 336 336 336 336 336 336 336 336 335 335 334 332 331 329 329 329 330 332 333 332 332 332 331 331 332 332 332 332 331 330 330 329 325 321 319 318 317 317 317 316 317 317 317 317 318 318 318 318 318 318 318 318 318 318 318 318 319 321 325 329 334 337 339 340
337 336 335 335 335 335 336 336 335 336 336 337 338 338 337 337 336 337 336 335 333 332 332 330 329 329 330 331 331 332 332 331 331 331 332 332 333 332 331 330 330 328 325 322 321 320 319 318 318 317 317 317 317 317 317 317 318 319 319 318 318 318 318 318 318 318 318 318 319 320 324 329 333 336
337 337 336 336 336 335 335 335 335 335 336 337 338 338 338 337 337 337 336 336 335 333 332 332 331 331 331 331 331 331 331 331 331 331 331 332 333 333 332 331 329 328 327 327 326 325 323 321 319 318 318 318 318 318 318 318 318 318 319 319 318 318 318 318 318 317 318 318 318 318 319 320 324 329
335 336 336 336 336 335 335 335 335 336 336 336 336 336 336 337 336 336 337 337 336 334 332 332 331 331 331 331 331 331 332 332 332 331 331 332 332 333 334 333 332 331 331 330 329 328 327 326 324 322 320 320 319 319 319 319 319 318 318 319 319 319 318 318 318 317 317 317 318 318 318 318 319 321
334 335 336 336 336 335 335 336 335 335 335 334 334 334 334 335 335 336 337 337 336 335 333 332 331 330 330 331 331 331 331 332 332 332 332 332 331 332 333 333 332 332 331 331 330 329 329 328 327 326 324 323 322 321 321 320 320 319 319 319 320 319 319 318 318 318 318 317 317 317 318 318 319 318
335 335 335 336 336 336 335 335 335 335 334 333 332 332 333 333 333 334 334 334 335 335 333 332 332 331 330 330 331 331 331 331 331 332 333 333 333 332 332 332 331 330 330 330 330 330 330 329 329 328 327 325 324 324 323 322 321 320 320 320 320 320 320 319 319 318 318 318 318 318 317 318 318 319
336 335 335 336 336 335 335 335 335 334 334 333 333 333 333 333 333 333 333 333 334 334 334 333 333 332 331 331 331 331 331 331 332 332 333 333 333 333 332 332 332 331 331 330 330 330 330 329 329 328 327 326 326 325 325 324 323 321 321 322 322 321 321 320 320 320 319 319 319 319 319 318 318 319
336 336 335 336 335 335 335 335 334 334 333 333 333 334 334 334 335 335 335 335 336 336 336 334 334 334 334 333 332 331 332 331 331 331 332 332 332 332 332 332 332 332 331 331 330 330 328 327 327 326 326 326 326 325 325 325 324 323 323 323 323 323 322 322 322 322 321 320 320 320 320 320 319 319
336 336 336 336 335 334 334 334 334 334 333 333 334 335 336 336 336 336 336 336 336 337 337 336 335 335 335 334 332 331 331 331 331 330 331 332 332 332 331 331 331 331 330 330 329 328 328 327 327 326 326 326 325 325 325 324 324 324 324 324 324 324 324 324 324 323 322 321 321 320 320 320 320 320
336 336 336 336 335 334 334 334 333 333 333 333 334 336 338 338 338 339 338 336 335 337 338 338 337 335 334 334 333 331 330 330 330 330 330 331 332 331 330 330 330 330 330 329 329 329 329 328 328 328 327 326 326 325 325 325 324 324 324 324 324 325 325 325 325 324 323 322 322 321 321 320 321 321
336 336 336 336 335 335 335 335 334 333 333 333 334 336 337 338 339 340 339 336 336 337 337 335 334 333 333 333 332 330 328 329 330 331 332 333 331 330 329 329 330 330 330 330 329 329 329 328 328 327 327 327 326 326 325 325 324 324 325 325 325 325 325 325 325 324 323 323 322 322 321 321 321 321
334 335 334 334 334 334 335 334 333 333 333 334 335 335 335 335 337 338 338 336 335 334 333 332 332 331 331 331 330 329 328 328 329 330 331 331 329 328 329 330 330 330 330 330 329 329 329 328 328 328 327 327 327 326 326 325 325 325 325 325 325 325 325 325 325 325 324 323 322 322 321 321 321 321
332 333 334 333 332 333 334 332 332 333 332 333 334 334 333 334 334 335 335 334 333 332 332 331 331 331 330 329 329 328 328 328 328 328 328 328 329 330 330 330 329 329 329 329 328 328 328 328 328 329 329 328 328 327 326 326 325 325 325 325 325 325 325 325 325 325 324 324 323 322 321 321 321 321
332 333 334 334 331 332 333 332 331 332 331 331 331 330 331 332 333 334 334 334 333 332 331 330 330 330 329 329 328 328 328 327 327 327 327 329 330 331 331 329 328 328 328 328 328 328 329 328 329 329 329 329 328 327 327 326 326 326 326 325 325 325 325 325 325 324 324 323 323 322 322 321 321 321
334 333 334 333 332 331 333 334 334 332 330 331 330 328 327 328 329 330 331 332 332 332 330 329 329 329 329 328 328 327 327 327 327 328 329 330 331 330 329 328 328 328 328 329 329 329 329 329 329 329 328 328 327 326 326 325 325 325 325 324 324 324 324 324 324 323 323 323 323 322 322 321 321 321
331 331 333 334 333 332 333 336 337 335 333 333 333 331 329 328 328 327 328 329 330 330 330 329 329 329 329 328 327 327 328 329 329 329 329 329 329 328 328 328 328 328 328 328 328 328 328 328 327 327 326 326 326 325 324 324 324 324 324 323 323 323 324 323 323 323 322 322 322 322 321 321 322 322
330 333 335 334 334 334 334 335 336 336 335 335 335 334 333 332 331 330 329 328 327 328 329 329 329 329 329 329 329 329 330 330 329 328 328 328 327 327 327 328 327 327 326 326 326 325 325 325 325 325 325 325 324 323 323 323 322 323 323 323 323 323 323 323 322 322 321 321 321 321 321 321 321 322
331 335 336 335 334 334 334 334 333 333 334 335 335 334 333 333 334 333 331 329 327 327 328 329 329 329 329 329 329 329 328 327 327 326 326 325 325 325 325 325 325 325 325 325 325 325 325 325 325 325 325 323 321 321 322 321 321 321 321 322 323 323 323 322 322 321 321 320 320 321 321 321 321 321
331 334 335 335 334 334 335 334 333 331 333 334 333 332 333 333 333 331 330 329 329 328 328 328 327 327 327 327 326 325 324 323 323 323 323 323 323 324 323 324 324 324 324 324 325 325 325 324 324 323 322 320 320 320 321 320 320 320 321 322 323 323 322 321 321 320 320 320 321 321 321 321 321 321
332 333 334 334 334 335 334 333 332 332 333 333 332 331 332 331 330 330 329 328 328 327 327 326 325 324 324 323 322 321 320 320 321 322 322 322 323 323 323 323 323 322 322 321 321 321 321 320 320 320 319 319 319 319 320 319 320 321 322 322 322 322 321 320 320 321 321 321 322 322 322 322 322 322
330 331 333 334 335 335 333 331 332 334 335 334 332 331 331 330 329 329 328 327 327 326 325 324 322 322 321 320 320 319 319 320 320 321 322 322 322 321 322 323 322 322 321 319 319 319 319 319 319 319 319 319 319 319 319 319 320 322 322 322 321 321 321 321 321 321 322 322 323 323 323 323 324 323
326 327 331 334 335 334 333 331 331 333 335 333 330 329 329 329 328 327 326 326 325 325 325 324 323 321 320 320 320 319 319 319 319 321 322 322 321 321 322 322 322 321 320 319 318 319 319 319 319 319 319 318 318 318 319 320 322 322 322 321 321 322 322 322 322 322 322 323 323 324 324 325 325 324
325 327 330 332 333 333 333 332 332 334 333 330 328 328 329 328 327 326 326 326 326 325 325 324 322 321 321 320 320 320 319 320 320 320 321 322 323 323 323 322 320 319 318 318 317 318 318 318 317 318 318 317 318 319 321 322 323 323 323 322 322 322 322 322 322 322 323 323 324 325 325 326 327 325
329 331 331 331 331 332 333 332 332 332 330 326 325 327 328 327 326 326 326 326 325 324 323 322 322 321 321 320 320 320 319 320 319 319 321 322 322 322 321 319 317 317 317 316 316 317 317 316 315 315 316 318 320 321 322 323 323 323 323 323 323 323 323 323 324 324 325 325 327 328 328 328 328 326
332 331 331 331 330 331 332 331 329 327 325 323 322 323 326 326 325 325 324 323 322 322 322 322 321 321 320 320 319 319 319 319 319 319 319 319 318 318 317 316 316 316 316 315 315 315 315 315 315 316 318 320 322 323 323 323 323 323 323 323 323 323 324 324 325 326 326 328 329 330 330 330 329 327
333 332 332 332 330 331 331 329 325 323 322 321 320 320 322 323 322 321 320 320 320 320 320 320 320 319 319 319 319 319 319 318 318 318 317 317 316 315 315 314 314 315 315 315 314 315 315 316 317 318 321 323 323 324 325 325 324 323 322 323 323 323 324 325 326 327 328 330 330 331 330 330 330 329
333 333 332 331 329 330 329 326 323 322 321 320 319 319 319 319 319 317 317 319 320 320 320 319 319 319 319 318 318 318 318 317 316 316 316 315 315 315 314 314 315 315 315 315 315 316 317 318 319 321 322 323 324 325 326 325 324 323 323 323 323 323 325 326 326 328 329 330 331 332 332 331 331 330
333 332 331 330 328 328 326 324 322 321 319 319 318 317 317 317 316 316 317 319 320 320 319 318 318 319 318 318 318 317 316 316 315 315 315 315 315 315 315 314 314 314 315 316 317 318 319 320 322 322 323 323 324 326 327 326 324 323 323 323 323 324 326 327 327 329 330 332 333 333 333 331 330 329
331 331 330 328 326 324 323 321 320 319 319 318 317 316 316 316 316 316 318 319 319 319 318 318 318 318 317 316 315 315 314 314 314 315 315 314 314 313 313 313 314 314 315 316 318 319 320 321 323 322 322 323 324 325 326 325 324 323 323 323 323 324 325 327 328 329 331 332 333 333 333 331 330 328
330 329 327 324 322 321 320 319 319 319 320 320 318 317 316 316 317 318 318 319 318 317 317 317 316 315 315 314 314 314 314 314 315 314 313 312 312 312 312 313 314 315 316 317 319 320 321 321 322 321 322 323 323 324 325 324 323 322 322 323 323 324 325 326 327 329 331 332 332 333 333 332 330 329
327 326 324 321 320 320 320 319 319 319 320 320 318 318 318 318 319 319 318 317 316 315 315 315 314 315 315 314 313 313 313 313 313 311 311 311 311 311 312 313 314 315 317 318 319 320 321 321 321 321 321 322 323 323 323 323 322 323 323 323 323 324 324 325 326 329 331 333 333 334 335 333 331 329
325 323 322 321 321 321 321 321 320 320 320 320 320 320 319 319 318 317 316 316 315 315 314 314 314 314 313 312 312 312 312 311 310 310 310 310 310 311 312 314 315 316 317 318 319 320 321 321 320 320 321 321 322 323 322 322 322 323 323 323 323 323 324 324 325 328 330 332 335 336 336 335 333 330
326 325 324 323 324 323 323 322 322 321 321 321 321 320 318 318 317 317 316 316 315 315 314 313 312 311 311 311 311 311 310 310 310 309 309 309 310 311 313 315 316 317 318 319 320 320 321 320 320 320 320 320 320 321 321 322 322 322 322 323 322 323 323 323 323 325 328 331 334 336 336 336 335 333
326 326 326 325 323 322 322 321 321 320 320 319 319 318 318 318 317 316 315 315 314 313 313 312 310 309 309 310 310 309 309 309 309 309 309 309 309 311 313 315 316 317 318 319 319 320 320 320 319 320 320 320 320 320 320 321 322 322 321 322 322 322 322 322 322 323 326 329 333 335 336 337 337 335
324 324 324 323 321 321 321 321 320 319 319 318 317 317 317 317 316 315 315 314 313 313 312 309 308 308 309 309 308 308 308 308 308 308 309 309 310 311 312 314 316 317 318 318 319 320 320 319 319 320 321 321 320 320 319 320 321 321 321 321 321 321 321 322 322 322 325 329 333 335 337 338 338 337
324 324 324 323 321 321 321 320 319 318 318 317 317 317 316 315 315 315 314 312 311 311 310 308 308 308 308 308 307 307 307 307 308 308 308 309 310 310 311 313 316 317 317 318 319 319 320 320 320 322 322 321 320 320 320 319 319 320 321 321 320 320 320 321 322 322 323 327 331 334 337 339 339 339
323 323 323 321 320 320 320 319 318 318 317 317 317 316 315 315 314 314 313 312 310 309 309 308 308 308 308 307 307 306 307 307 308 308 308 309 309 310 310 312 315 316 316 317 318 319 320 321 321 322 322 320 319 320 320 319 319 319 319 319 319 320 320 320 321 321 321 324 329 333 336 338 339 339
323 322 322 320 319 318 318 318 318 318 317 317 316 315 314 314 314 313 312 311 308 307 307 308 307 307 307 307 306 306 307 308 308 308 308 309 309 309 309 311 313 314 315 316 317 318 319 320 322 322 321 320 320 320 320 319 319 319 318 318 318 319 319 320 320 320 320 322 324 328 332 336 338 339
320 321 321 320 319 318 318 318 318 317 316 316 315 314 313 314 313 312 310 308 307 307 307 307 306 306 307 307 306 307 307 307 307 308 308 308 308 308 309 310 311 313 315 316 317 317 318 320 321 321 320 319 320 320 319 319 319 319 317 317 317 318 318 319 319 319 319 319 319 323 330 335 337 336
319 319 319 319 318 318 318 317 317 317 316 315 314 313 313 313 312 310 308 307 307 307 306 305 306 307 308 307 307 307 307 307 307 308 308 307 307 308 309 309 310 312 315 316 316 317 318 319 320 320 318 318 318 318 318 318 318 318 317 316 316 317 317 318 319 318 318 317 317 321 329 335 337 336
319 319 319 318 318 318 317 317 316 316 315 314 314 313 312 312 310 309 307 305 304 303 303 305 307 308 307 307 307 307 306 306 307 307 307 307 307 308 309 308 309 312 314 315 316 317 317 318 319 319 317 317 317 316 318 318 318 318 317 316 316 316 316 317 318 318 317 316 316 318 323 328 333 336
319 319 318 317 317 317 317 316 316 315 314 314 313 312 312 310 308 307 305 304 303 304 305 307 308 307 306 306 306 306 306 306 307 307 306 307 308 308 308 308 309 311 314 315 316 316 316 317 319 318 317 317 317 317 318 318 318 318 317 316 316 316 315 316 317 317 316 316 316 316 317 318 324 332
319 318 318 317 317 316 316 316 315 314 314 313 312 312 311 308 306 306 305 305 306 307 308 307 306 306 306 306 306 305 305 306 306 306 307 307 308 308 308 308 309 311 313 314 315 315 316 318 319 318 318 319 319 317 317 318 318 317 316 316 315 315 315 315 316 316 315 315 315 315 315 314 316 322
319 318 318 317 316 316 315 315 314 313 313 312 311 310 308 306 305 305 306 306 306 306 306 306 305 306 306 305 305 305 305 305 306 306 307 307 307 307 308 308 309 311 313 313 314 315 316 318 319 318 320 321 320 317 316 318 318 317 316 315 315 315 315 315 316 315 315 315 314 315 315 314 314 315
318 317 317 316 315 315 315 314 313 312 312 310 309 307 305 304 303 304 305 305 306 306 305 305 305 305 304 304 304 304 305 305 306 306 306 307 307 307 307 308 309 311 312 312 313 315 316 317 318 318 318 319 319 318 317 317 317 316 315 314 314 314 315 315 315 315 315 314 313 314 314 314 313 314
Wind_Speed
9 9 9 9 9 9 8 8 7 8 8 8 8 8 8 8 6 5 5 6 7 8 10 10 7 5 6 7 9 11 12 13 14 15 16 16 16 16 17 19 21 22 21 20 19 20 19 17 16 15 14 13 13 13 13 13 13 13 14 14 15 16 18 20 22 24 26 28 30 32 32 33 33 33
10 10 10 10 9 9 8 8 8 8 8 8 9 9 8 8 7 7 5 5 7 8 9 11 11 9 8 8 10 11 12 14 15 15 17 17 18 17 18 20 23 24 25 23 21 21 22 22 21 20 19 19 18 18 17 17 16 16 15 15 15 15 16 17 18 20 23 25 28 30 32 34 35 35
11 11 11 11 10 10 9 9 9 8 7 8 9 9 8 8 8 8 7 6 6 8 9 11 12 12 13 12 13 14 14 14 15 15 17 18 19 20 21 23 24 25 24 22 21 21 21 22 22 23 23 23 22 22 21 21 20 19 18 17 17 17 17 18 18 18 20 22 25 28 30 33 35 36
11 11 11 11 11 10 10 10 8 8 8 8 9 9 9 9 9 9 9 8 8 11 11 11 13 14 14 13 13 14 14 14 15 15 17 18 19 20 20 21 22 23 23 23 23 23 23 22 22 23 23 24 24 25 24 24 24 23 22 21 20 19 19 19 19 19 19 21 23 25 28 31 33 35
11 11 11 11 11 11 11 10 9 8 9 9 9 9 9 10 9 9 10 10 11 14 14 12 13 14 14 14 13 14 15 15 15 15 16 17 18 18 19 20 21 21 22 22 23 23 24 24 24 24 25 25 25 26 27 27 27 26 25 24 23 22 21 20 20 20 21 22 23 25 27 30 32 34
11 11 11 12 12 12 12 12 10 10 10 10 10 9 9 10 10 9 10 10 11 13 15 15 16 15 15 15 14 14 16 16 15 16 16 16 17 17 18 20 20 20 20 20 21 22 23 24 25 27 27 26 25 26 28 28 28 28 26 26 25 25 23 22 21 22 24 25 26 27 28 30 32 34
12 12 12 12 12 12 12 12 11 10 10 9 9 10 10 11 12 11 12 12 12 14 15 16 16 16 15 16 15 15 15 16 16 16 16 16 17 17 18 19 19 20 21 22 23 24 25 26 27 27 27 26 25 26 27 29 29 29 27 26 26 26 26 25 26 26 27 27 28 29 31 32 33 35
12 12 12 13 13 13 13 13 12 11 10 10 10 11 11 12 13 13 12 13 13 14 15 15 16 15 15 16 17 16 16 16 16 16 16 17 17 18 18 19 20 20 21 23 24 25 24 25 26 26 26 27 26 27 28 30 30 30 29 27 28 29 29 29 29 30 29 28 29 30 32 33 34 35
12 12 13 13 13 13 13 13 12 11 11 11 11 12 12 12 12 12 12 13 15 16 16 16 16 16 15 16 17 16 16 16 16 16 16 17 18 18 19 20 20 21 22 23 24 24 24 25 26 27 27 28 28 28 30 31 31 30 30 30 31 31 32 32 32 31 30 29 29 30 32 34 35 37
12 13 14 15 15 15 15 14 13 12 12 12 12 12 12 11 11 11 12 14 16 16 14 15 16 17 17 16 16 15 16 17 17 17 17 17 17 17 18 20 21 20 21 21 22 23 24 25 26 27 29 30 30 31 33 34 32 31 32 33 34 34 34 33 33 32 31 30 30 32 34 35 36 37
12 14 16 17 17 16 16 15 14 13 13 13 14 13 12 11 11 11 11 12 13 13 13 14 17 17 17 17 18 17 17 18 18 17 17 16 16 17 19 20 20 20 20 21 22 24 24 26 27 29 30 31 32 34 36 35 33 32 33 34 35 35 35 35 34 32 30 30 32 34 36 38 39 39
13 15 18 19 19 18 17 17 17 16 15 14 14 13 13 13 12 11 12 13 13 14 14 15 16 17 17 17 17 17 16 16 16 16 16 18 19 20 20 19 19 20 21 22 24 24 24 25 27 27 28 29 31 32 32 32 32 34 36 36 36 36 37 36 35 32 31 33 35 37 39 40 40 41
14 15 19 21 20 19 18 19 19 19 18 17 15 14 14 14 13 13 14 14 14 14 14 15 15 15 16 16 16 16 15 15 16 17 19 21 21 19 19 20 20 22 23 24 25 24 23 24 24 25 25 27 28 28 29 30 32 33 34 33 32 33 34 33 33 33 34 38 40 41 42 43 42 42
14 15 19 22 23 22 21 21 22 22 21 20 21 20 17 16 14 14 14 14 14 13 14 15 15 15 16 16 16 16 16 16 17 18 19 19 18 17 18 20 20 21 22 24 24 22 22 23 24 24 24 25 26 28 29 30 30 30 30 31 32 33 34 34 35 38 40 43 45 45 45 46 45 44
12 13 16 21 23 22 21 21 22 24 24 24 24 24 23 20 18 17 16 14 14 13 14 15 16 16 17 17 17 18 18 18 18 16 15 16 18 18 17 17 18 18 19 21 23 22 22 22 24 25 25 25 26 27 28 30 31 32 33 35 37 37 38 39 40 42 44 46 48 49 48 48 48 47
10 10 13 16 18 19 21 21 18 19 22 24 25 25 24 22 20 19 19 17 15 14 15 16 17 17 17 18 17 17 17 17 17 16 15 16 18 19 17 17 18 18 18 20 23 24 24 23 25 27 26 26 27 28 30 31 33 34 36 38 39 39 38 40 43 45 48 49 51 51 50 50 50 49
9 11 12 14 17 20 21 19 15 17 22 23 22 21 21 20 19 19 19 18 17 18 17 17 17 17 17 17 16 15 14 15 17 16 16 17 18 19 19 20 21 22 21 22 24 25 25 24 25 27 26 26 28 28 29 30 32 35 37 39 40 40 40 42 46 49 52 52 51 51 52 52 51 51
10 12 12 13 17 21 21 17 17 21 23 20 19 19 20 20 18 17 17 18 19 21 22 20 19 17 16 15 15 14 14 15 16 16 17 18 20 22 23 24 26 26 23 23 23 23 24 25 26 27 27 28 29 29 30 32 34 37 39 40 40 41 43 46 49 52 53 52 52 52 52 52 52 52
11 13 14 15 18 21 21 19 21 25 24 21 18 18 18 17 15 16 17 18 18 19 21 21 20 18 16 16 16 16 15 15 16 16 18 19 21 24 26 25 26 25 24 24 23 22 23 25 25 27 29 29 29 30 31 33 36 37 38 39 40 43 46 49 51 52 53 53 53 52 51 51 51 51
10 12 15 17 18 17 15 15 18 23 24 22 18 15 14 14 15 16 17 17 17 17 18 18 16 15 15 17 18 18 18 17 17 16 17 18 21 23 23 22 23 24 24 24 24 24 25 25 26 28 30 30 31 32 32 34 36 36 37 38 42 46 48 49 50 52 53 52 50 49 49 49 49 50
10 14 15 14 13 12 13 16 19 21 22 20 15 13 13 13 15 16 16 17 18 17 16 15 14 15 16 17 18 18 18 18 18 17 17 17 19 20 19 18 21 24 24 25 26 26 25 25 26 28 29 31 32 33 34 35 33 33 37 40 43 45 46 48 51 52 51 50 47 47 47 48 49 47
12 16 15 11 10 14 18 21 20 19 20 17 13 13 13 14 16 17 16 17 16 13 12 12 13 16 16 16 17 19 20 19 19 21 22 20 19 19 17 18 21 24 26 25 23 23 24 24 25 27 29 30 32 32 33 34 33 34 38 41 42 43 46 49 51 49 48 48 48 47 47 47 47 46
14 16 16 14 13 16 18 18 15 16 17 16 13 12 14 15 17 16 14 13 12 11 12 13 14 15 15 15 17 20 21 21 22 26 28 26 21 19 19 21 20 19 20 21 20 20 24 24 24 25 23 20 23 29 31 31 31 34 37 40 44 48 49 49 47 46 46 47 47 47 46 45 45 45
14 15 17 16 15 16 16 15 16 16 17 16 14 12 13 15 16 14 12 11 11 12 14 15 15 15 15 15 16 18 19 20 21 22 23 24 22 20 21 23 21 18 19 22 21 22 25 25 25 27 23 16 18 26 31 32 32 34 37 41 46 49 47 43 41 40 41 41 40 40 41 42 43 43
12 15 17 17 18 19 17 17 17 17 16 17 15 13 14 16 17 17 15 12 12 13 14 14 14 14 15 16 16 17 18 18 18 17 16 18 19 20 22 23 23 23 25 26 25 25 26 26 25 27 26 23 22 27 32 36 38 40 41 42 44 44 42 38 37 36 35 36 36 36 36 38 41 43
12 13 14 15 16 16 15 15 15 15 15 16 15 15 16 18 18 17 15 12 12 12 12 13 14 16 17 18 17 17 17 17 16 15 16 17 19 21 23 24 25 27 28 29 28 26 26 26 26 25 24 23 25 27 29 31 36 40 41 40 41 41 39 37 34 32 32 33 35 35 35 35 38 42
11 10 10 11 12 12 14 14 13 13 14 15 16 16 16 15 14 13 11 11 11 12 12 14 16 17 18 18 18 17 15 15 15 16 18 20 22 23 24 24 25 27 29 30 29 27 25 26 27 27 27 26 25 23 22 25 33 40 40 41 40 38 35 35 33 33 34 35 35 34 35 34 35 40
8 9 10 11 11 11 12 12 13 14 15 15 14 14 12 11 11 10 10 10 11 12 14 16 17 17 17 16 16 15 15 16 18 19 20 21 22 22 22 23 24 26 28 28 27 26 25 25 27 30 33 31 25 19 19 25 35 40 40 40 38 34 33 34 33 33 34 35 33 32 30 31 34 37
8 9 10 10 10 10 10 11 12 13 12 11 10 9 8 9 10 9 10 11 12 13 15 16 16 15 15 15 15 16 17 18 19 20 20 20 20 20 21 22 23 24 25 25 24 24 24 24 27 31 32 29 25 22 23 28 34 38 38 36 34 33 35 35 33 32 32 32 32 30 28 30 33 36
10 9 8 7 8 9 10 10 9 8 9 9 9 8 8 9 10 10 10 10 11 14 15 15 15 15 14 15 16 17 18 18 18 18 18 19 19 19 19 21 22 22 22 22 23 24 24 23 25 27 28 26 24 25 28 30 33 37 38 33 30 32 33 33 33 33 33 32 32 31 29 30 31 35
11 10 9 7 6 6 5 6 7 9 11 12 11 10 10 10 12 11 9 9 11 14 14 15 16 15 15 17 18 17 17 16 16 16 17 18 19 19 19 20 21 21 21 22 23 23 23 24 24 24 24 26 26 28 33 34 33 35 36 32 29 28 29 30 31 31 30 30 30 29 25 25 27 30
10 9 8 6 7 7 4 4 7 11 13 13 12 11 10 9 10 11 12 13 12 13 13 14 15 16 16 17 17 16 15 16 16 16 16 17 18 19 19 19 19 19 20 22 23 23 22 23 23 22 23 26 29 32 35 34 32 30 30 30 30 28 28 29 29 29 32 31 28 26 22 22 26 27
11 9 9 9 10 8 6 6 9 10 12 13 12 11 10 9 9 10 11 12 12 13 13 14 14 16 17 16 16 15 15 16 16 16 16 17 18 19 18 18 18 19 20 22 24 23 23 22 21 21 23 27 30 31 31 30 29 29 28 29 29 28 29 30 30 31 33 31 25 21 20 22 25 26
9 8 9 11 10 8 7 9 10 10 11 11 11 10 8 9 11 13 12 13 13 12 11 12 15 17 17 15 15 15 15 16 16 16 17 18 18 17 17 17 17 17 19 22 23 23 23 22 21 21 24 28 30 30 25 22 25 30 31 29 28 29 31 32 33 33 32 29 25 21 17 19 23 24
8 9 10 11 10 9 9 11 10 10 10 10 10 10 10 10 12 13 12 10 9 7 10 14 16 16 15 14 14 15 15 16 17 17 17 17 17 17 17 16 16 18 19 21 22 22 22 23 23 22 22 24 25 25 23 21 23 28 31 30 29 33 36 34 32 32 31 28 24 20 15 15 22 25
8 9 10 11 11 10 10 10 9 10 11 10 10 10 12 12 12 10 9 10 9 9 13 16 15 13 13 14 14 15 15 16 17 16 16 16 16 17 17 16 16 18 20 20 21 22 21 21 21 18 15 15 14 14 18 26 27 25 27 30 32 35 38 36 33 31 29 27 23 18 15 12 17 25
8 9 10 12 11 10 10 10 9 9 10 10 10 11 12 12 11 10 10 10 10 11 13 13 12 13 13 13 13 14 15 15 16 16 16 16 16 16 17 17 17 18 19 20 21 21 19 17 17 16 13 12 12 10 16 28 32 27 27 31 32 34 37 36 33 31 29 28 25 19 17 15 14 20
8 9 11 12 10 9 10 10 9 9 9 10 11 12 12 11 10 10 9 10 10 11 11 11 12 12 12 12 13 14 14 15 15 15 16 16 15 16 17 17 18 18 19 20 21 21 19 15 13 14 13 11 10 10 14 21 28 30 32 33 32 34 37 34 29 29 29 28 28 25 19 16 16 16
7 8 11 11 9 7 8 8 8 9 10 10 11 11 11 11 10 9 10 11 11 10 10 11 11 12 12 12 13 14 14 15 15 15 15 15 15 16 17 17 19 19 19 20 20 21 20 15 12 15 17 14 13 17 19 21 24 29 32 33 32 34 36 33 29 27 27 28 31 30 22 14 15 15
5 7 9 9 7 7 7 8 8 9 11 11 11 11 11 10 10 10 10 10 9 8 10 11 12 12 12 12 12 13 14 14 14 15 15 15 16 16 17 18 19 19 18 19 19 20 20 17 14 18 22 20 20 24 26 24 23 26 30 33 34 34 34 32 29 26 26 29 29 26 20 13 10 15
6 8 8 7 7 7 8 9 9 11 12 11 9 8 9 9 10 10 11 11 10 9 10 11 11 11 11 12 12 12 13 14 14 15 15 16 16 17 17 18 18 17 17 18 18 19 20 19 18 20 22 21 22 23 20 14 15 21 28 33 35 34 33 31 27 25 27 30 28 21 17 16 12 9
7 8 8 7 8 8 10 11 12 11 10 9 7 5 6 8 9 10 10 11 10 10 11 10 10 10 11 11 11 12 13 14 14 15 15 16 17 17 17 17 17 17 17 18 17 19 21 19 17 20 23 21 21 19 12 8 12 19 24 30 33 34 34 32 27 25 27 30 29 23 17 14 12 7
8 10 10 10 11 11 10 9 8 7 8 9 7 6 8 9 10 10 9 9 8 8 9 9 9 9 10 11 11 12 13 13 14 15 16 16 16 16 17 17 17 17 18 18 18 20 22 18 16 20 21 17 17 18 15 14 17 20 22 26 31 33 35 34 29 26 28 31 31 28 23 16 9 7
8 9 10 10 10 10 8 6 7 8 8 8 8 8 8 9 9 9 8 8 7 7 7 8 9 9 10 11 11 12 12 13 14 15 15 16 16 16 16 17 17 17 17 18 18 20 21 17 15 17 16 13 15 21 21 18 18 20 23 26 29 31 33 33 32 28 29 32 32 30 30 28 21 14
8 9 9 8 8 9 8 8 8 9 9 8 8 8 8 8 9 8 8 7 7 7 7 8 9 9 9 10 11 12 13 13 14 15 15 15 16 16 16 17 17 17 17 18 18 19 20 19 16 15 14 13 14 20 23 21 19 21 23 25 28 29 29 30 30 27 26 30 33 31 29 31 33 32
Wind_Direction
246 247 245 244 253 265 272 272 269 270 271 269 268 264 260 265 277 287 291 296 300 298 297 302 300 270 248 244 251 258 266 274 276 276 277 276 276 277 277 278 278 280 281 281 278 273 270 269 270 273 278 283 288 293 297 300 300 298 296 294 292 289 287 284 280 276 272 268 265 261 258 257 257 258
253 254 255 257 259 259 260 263 264 265 269 272 274 274 268 264 268 280 289 284 285 294 297 296 298 303 300 286 273 267 270 277 276 273 273 273 274 274 274 274 275 276 281 283 280 275 271 268 268 271 275 279 284 288 292 295 296 296 295 294 295 295 294 292 289 285 281 277 274 269 265 261 258 257
249 253 257 260 262 264 264 264 265 266 271 276 280 283 283 279 275 278 285 285 283 290 296 299 298 298 297 291 282 277 276 276 273 271 271 272 273 274 273 274 275 278 282 284 282 280 277 274 272 273 275 278 282 285 288 291 291 291 290 289 289 291 292 293 292 291 288 285 281 277 273 269 264 260
251 253 257 257 257 260 260 260 263 266 268 271 274 280 286 286 282 279 278 282 290 294 296 298 296 293 292 287 279 277 276 274 272 269 268 270 272 273 273 275 277 278 280 281 281 281 280 280 278 278 280 281 281 283 284 285 286 285 284 283 284 285 287 288 288 289 291 291 289 285 280 275 271 266
253 255 256 259 259 259 260 261 262 264 266 265 261 263 269 274 276 275 276 282 290 294 296 295 293 294 294 288 282 280 279 276 274 271 268 269 271 271 272 274 275 274 275 277 278 279 280 279 279 280 281 282 283 283 283 282 282 282 280 279 279 282 285 286 286 287 289 291 292 291 286 281 275 271
245 250 251 254 255 256 260 261 259 258 259 262 267 268 269 272 272 268 269 273 277 285 291 294 293 293 294 292 287 283 281 281 280 276 273 273 273 273 272 274 275 275 275 276 276 276 277 276 276 276 278 282 284 286 286 285 283 281 280 277 276 278 281 283 286 287 288 290 292 292 290 285 279 273
240 243 245 250 253 255 257 257 256 255 254 258 269 274 272 271 272 269 265 265 268 275 282 286 289 291 293 294 294 289 284 283 282 279 277 276 275 275 274 274 275 275 274 275 275 275 276 275 275 276 278 281 282 284 288 289 288 286 283 280 279 280 281 283 287 289 289 290 291 291 291 288 284 277
240 243 245 249 253 253 254 254 253 250 251 256 262 268 270 268 268 269 266 264 266 270 275 279 282 285 287 290 293 293 289 284 282 280 279 277 274 274 276 275 275 276 276 276 278 279 279 278 278 278 280 280 278 281 286 289 290 289 286 284 284 285 285 285 287 288 289 289 291 292 291 289 286 282
245 248 249 253 255 254 253 254 252 250 251 258 262 266 268 267 267 269 270 270 268 265 271 279 283 285 287 286 286 290 291 290 288 285 282 279 276 276 279 279 278 278 278 280 281 282 282 281 280 280 280 279 277 278 281 284 286 287 287 285 284 286 286 285 286 286 285 285 288 292 292 290 287 284
250 254 255 256 255 254 254 253 252 253 256 262 266 267 267 266 267 267 268 273 271 267 272 281 286 290 291 289 288 291 293 294 293 292 288 281 277 280 282 282 281 280 279 280 280 280 279 279 279 279 279 278 277 277 279 280 281 283 285 283 282 282 282 283 283 282 280 281 285 290 292 290 287 285
247 257 259 258 255 253 254 253 251 251 256 262 264 265 268 267 265 264 268 273 274 275 279 281 284 289 290 290 292 294 294 293 291 291 289 284 284 287 286 283 282 283 282 282 281 279 278 278 278 277 277 276 276 277 277 277 278 280 280 280 280 280 279 279 279 277 275 277 283 288 289 288 286 284
234 254 262 262 258 253 249 249 251 250 251 257 259 260 264 267 267 268 271 275 277 280 282 282 283 284 285 286 288 291 293 292 290 290 290 291 292 292 287 282 283 285 284 282 282 281 280 280 279 278 277 277 277 277 277 277 279 279 278 277 278 278 277 277 275 272 272 277 282 286 287 286 284 281
220 244 261 265 262 259 254 252 253 250 245 247 255 260 263 266 267 267 270 274 280 283 284 285 286 285 285 285 286 289 290 288 288 291 291 292 293 290 286 284 284 285 283 282 281 281 281 281 279 277 275 275 276 278 279 278 278 278 278 277 276 276 276 275 273 272 274 278 281 282 284 283 280 279
217 235 256 265 266 264 261 257 256 255 252 253 259 262 259 258 260 264 268 272 277 283 284 285 288 289 289 290 292 294 293 291 291 294 294 293 291 289 289 288 287 284 283 284 284 283 282 281 279 277 275 275 276 277 276 275 275 276 277 277 277 277 276 276 276 276 277 278 279 279 280 280 277 276
226 239 258 269 271 269 271 271 264 257 256 259 264 264 259 256 258 260 262 266 273 278 281 283 287 289 288 290 293 295 296 298 299 299 297 292 290 291 292 291 290 287 286 290 290 288 285 282 280 279 279 278 277 275 273 274 275 274 273 274 275 273 273 275 277 277 277 277 277 277 277 276 274 272
247 258 267 274 276 274 280 285 275 259 261 266 267 266 262 261 262 260 257 260 266 269 273 279 283 284 286 289 291 293 298 301 304 302 297 292 293 294 291 288 288 288 292 295 292 289 287 285 282 281 279 277 275 274 275 276 276 275 274 275 275 272 271 273 275 277 278 277 276 275 274 272 270 269
262 278 281 283 284 279 279 286 281 267 267 271 269 266 263 261 262 263 262 263 265 263 263 271 277 280 284 288 290 295 302 304 304 303 299 298 297 293 290 288 289 292 296 295 290 287 286 286 284 281 277 276 277 278 279 280 280 279 278 278 276 274 273 275 276 278 279 277 275 274 272 270 267 265
271 285 288 289 289 284 279 282 283 277 272 270 267 262 257 256 261 267 269 269 268 262 256 259 269 276 280 285 289 295 301 302 302 301 300 299 296 291 288 288 289 289 287 283 282 282 281 280 281 278 276 279 283 283 282 282 282 281 280 279 277 276 277 278 279 279 279 278 277 275 272 269 265 263
276 287 291 292 290 286 280 280 284 283 276 267 263 260 256 259 267 272 274 273 269 262 256 259 270 277 279 283 287 292 297 298 298 297 295 291 288 286 286 285 284 284 281 276 274 275 278 280 280 280 282 286 287 286 285 283 282 281 281 279 277 277 279 281 281 281 281 281 279 276 273 269 265 261
281 297 302 297 292 287 283 285 286 281 272 265 266 268 266 270 276 277 280 279 273 268 267 268 273 279 282 284 288 293 296 295 295 294 290 286 284 284 284 283 283 286 287 284 281 282 286 289 287 287 288 289 288 287 286 284 283 281 279 278 279 280 282 283 283 284 284 282 280 276 272 269 265 261
289 304 303 291 280 270 269 282 284 274 266 265 269 274 273 275 278 279 282 282 278 274 271 271 279 289 293 293 295 297 298 297 294 284 277 279 283 284 284 285 287 289 291 291 290 290 291 293 292 290 290 288 287 286 284 282 281 280 279 281 283 284 285 286 287 286 284 281 278 274 272 269 265 261
285 294 290 275 263 261 267 278 278 263 256 259 264 270 272 273 277 281 285 287 286 282 274 276 292 301 301 302 303 301 299 297 288 271 260 265 276 281 282 286 289 290 289 290 291 290 290 292 293 293 292 289 285 282 281 281 280 279 283 286 288 289 290 291 290 286 282 280 277 274 272 269 264 258
269 275 277 273 268 268 270 271 260 245 247 255 258 264 269 273 279 286 291 292 295 294 286 284 292 296 297 299 300 299 296 292 285 271 260 256 261 266 271 280 287 290 289 291 294 293 292 294 295 294 294 291 286 284 283 283 280 280 286 292 294 295 296 294 289 284 280 278 276 272 269 266 261 253
260 265 271 272 272 271 267 257 245 243 248 254 255 260 269 274 280 286 293 296 295 291 286 285 287 289 291 291 292 293 292 291 290 282 265 257 259 266 276 285 291 290 288 293 299 298 296 296 294 290 286 283 286 289 289 290 288 288 292 294 295 296 297 294 288 283 280 277 276 273 268 262 256 247
263 271 274 272 271 268 259 248 245 247 252 255 256 257 261 266 272 278 282 287 287 285 284 286 287 289 293 295 294 294 293 293 296 294 284 278 281 287 293 295 294 290 288 291 296 297 295 293 291 288 284 279 281 286 291 293 294 296 297 296 294 294 293 290 285 281 278 276 276 276 270 260 252 244
262 270 270 266 262 253 242 238 243 249 255 257 256 254 255 260 267 272 275 279 285 287 287 288 290 293 296 297 295 294 295 296 298 298 296 295 294 293 292 291 290 288 287 290 293 293 291 288 286 284 283 281 282 287 291 292 296 300 301 298 295 294 291 288 283 278 274 272 272 275 274 263 251 242
255 259 255 252 245 232 228 237 250 258 258 255 254 256 258 260 266 272 276 278 279 279 280 287 294 298 298 296 295 297 299 300 302 301 298 296 293 291 289 287 284 284 285 289 291 288 285 283 281 281 282 283 286 290 291 294 300 304 302 300 299 297 293 287 280 274 273 273 273 275 273 262 250 242
247 236 229 227 220 217 229 245 254 255 254 253 258 265 268 270 274 279 280 276 275 279 285 293 298 298 296 296 297 300 302 301 301 300 297 294 292 290 289 288 286 285 287 288 288 285 282 280 280 283 286 288 292 296 298 300 303 304 304 304 305 304 301 294 283 276 275 274 273 274 264 248 240 236
225 209 201 202 206 220 241 251 251 253 256 259 264 272 278 282 282 276 268 267 275 288 293 296 299 297 296 299 301 302 304 302 300 298 296 295 294 293 293 292 291 290 290 290 290 289 287 284 286 290 293 296 300 301 301 302 302 303 304 306 307 308 307 303 295 287 282 277 275 272 255 236 231 228
215 209 209 218 232 246 254 253 250 252 257 263 271 276 279 278 267 254 251 266 289 301 301 299 299 299 300 303 303 303 302 298 296 297 298 298 299 299 301 300 298 297 297 296 296 295 294 295 299 300 302 305 306 303 302 302 301 302 304 305 306 307 307 306 302 295 288 282 278 271 252 230 223 223
219 228 240 249 253 255 264 268 260 246 242 248 256 256 256 261 259 255 269 294 298 295 294 297 298 299 301 303 302 302 300 297 298 301 301 302 303 304 305 304 300 301 302 301 300 300 301 303 306 306 307 309 306 303 304 302 300 300 303 305 307 307 307 309 307 298 291 284 277 270 252 221 209 215
204 218 229 222 207 201 202 231 239 234 232 236 243 248 256 266 269 271 284 291 281 271 279 294 300 300 301 302 302 302 302 300 301 303 303 302 303 303 303 300 298 302 305 304 304 304 305 307 308 310 312 312 308 305 303 302 302 303 304 306 310 310 311 315 313 306 302 296 282 270 253 222 205 207
183 195 206 211 213 211 219 244 255 254 247 244 250 258 262 266 273 278 283 284 282 284 293 301 304 302 300 301 302 303 302 302 303 304 304 302 300 299 298 296 299 306 309 306 306 308 308 310 311 311 313 315 313 309 302 298 305 313 312 311 313 314 314 318 319 313 310 306 293 275 253 227 213 207
202 224 234 247 260 266 269 272 276 277 270 262 264 267 259 260 278 291 292 288 290 296 299 301 302 301 300 300 301 302 303 304 305 305 303 300 298 298 298 299 305 313 312 308 308 310 312 314 314 314 317 320 320 318 311 302 308 317 320 318 320 321 321 322 322 318 315 310 296 275 247 225 217 210
235 254 258 270 281 278 267 265 267 271 278 285 291 293 285 276 280 288 295 303 311 312 305 302 300 298 297 298 300 302 303 304 305 304 303 302 301 301 302 303 308 312 312 309 309 313 318 320 319 317 321 323 322 323 328 328 323 321 321 322 327 329 328 326 324 320 318 316 302 275 246 229 222 216
252 263 267 273 274 261 254 261 271 277 283 290 294 291 287 288 294 304 323 345 346 318 299 298 296 294 295 297 298 301 302 302 304 304 305 306 305 304 306 306 307 311 314 312 311 316 320 320 319 321 325 325 323 322 329 334 333 329 325 325 329 333 333 331 329 326 322 322 312 281 252 242 229 217
259 257 258 269 274 265 260 268 276 277 280 286 286 284 287 298 309 314 321 332 327 303 291 290 289 290 293 296 300 303 303 303 305 306 307 307 307 309 311 311 310 312 315 313 311 316 318 317 322 329 329 325 324 318 320 327 331 335 337 333 330 332 335 335 334 333 329 327 324 302 266 249 237 223
262 260 263 274 280 277 278 286 289 284 283 285 286 288 292 297 300 299 302 306 303 295 290 288 288 292 298 302 303 303 303 304 306 307 308 309 312 314 315 314 314 315 314 312 312 318 324 323 326 334 334 326 321 318 319 324 327 333 341 342 336 334 338 339 336 335 333 330 331 326 303 265 241 231
258 266 272 280 284 281 285 296 299 290 284 284 288 292 294 294 294 298 301 297 292 292 293 292 293 297 299 300 300 300 303 307 309 309 311 314 316 316 315 316 317 314 313 315 317 322 328 330 332 339 337 325 314 314 314 314 317 325 338 348 349 344 342 342 340 341 342 336 330 328 324 295 247 237
242 259 263 276 290 285 276 280 284 279 273 275 282 287 288 289 293 298 298 294 294 296 293 291 293 294 294 298 301 303 306 310 310 311 315 317 316 316 317 317 315 313 315 320 322 326 332 334 334 338 336 328 324 325 322 316 319 327 339 351 357 354 350 347 346 347 350 347 337 327 326 322 270 240
237 259 262 271 279 272 266 267 265 261 265 273 278 276 275 278 281 285 290 293 293 290 285 285 289 291 295 300 304 305 309 312 311 314 319 319 316 317 317 316 316 318 322 323 324 330 334 330 326 335 341 342 342 342 335 326 331 337 340 348 355 358 359 358 357 356 359 360 355 342 328 331 326 269
231 250 258 260 257 254 256 255 252 259 289 317 326 301 278 273 267 264 271 276 272 267 270 277 285 292 298 303 307 310 312 312 315 320 321 319 318 319 320 320 322 323 323 322 324 330 330 324 328 343 350 351 351 350 341 329 335 338 339 344 350 357 1 3 4 8 10 11 13 9 351 336 338 329
238 241 240 235 231 231 239 254 269 290 312 319 307 279 272 275 270 260 259 262 260 259 269 283 292 298 302 305 309 312 312 315 321 323 319 318 320 320 321 323 323 323 323 324 325 329 329 326 338 349 349 348 352 354 345 335 337 340 341 345 349 354 360 1 4 11 18 20 22 24 21 12 354 332
251 248 245 241 237 239 255 294 316 307 288 275 271 267 266 268 266 261 259 264 268 273 282 292 295 297 302 309 312 313 315 317 319 318 316 319 321 321 321 324 325 326 328 327 327 332 333 333 343 353 349 342 350 355 349 340 338 343 346 348 350 353 357 358 360 6 15 19 20 23 27 31 31 26
251 254 259 259 252 253 265 282 285 276 265 263 266 264 260 257 258 261 264 264 268 277 285 290 295 301 308 313 312 311 313 315 316 318 321 322 322 323 325 327 327 329 332 333 332 332 333 337 349 0 353 342 349 358 354 347 345 349 352 351 351 353 356 358 359 2 9 14 16 19 25 31 36 41